Cardak, Turkey

10:46 PM +03 on November 19, 2017 (GMT +0300)
Cardak Air Base

Weather History for LTAY - November, 2017

Change the Weather History Date:

Wednesday, November 15, 2017

  Actual Average Record
Temperature  
Mean Temperature 52 °F -  
Max Temperature 62 °F - - ()
Min Temperature 41 °F - - ()
Degree Days  
Heating Degree Days 14    
Growing Degree Days 2 (Base 50)    
Moisture  
Dew Point 45 °F    
Average Humidity 86    
Maximum Humidity 100    
Minimum Humidity 55    
Precipitation  
Precipitation 0.00 in - - ()
Sea Level Pressure  
Sea Level Pressure 30.16 in    
Wind  
Wind Speed 4 mph ()    
Max Wind Speed 12 mph    
Max Gust Speed -    
Visibility 4.9 miles    
Events Fog    
T = Trace of Precipitation, MM = Missing Value Source: Averaged Metar Reports

Daily Weather History Graph

Daily Weather History Graph

Search for Another Location

Airport or City:

Trip Planner

Search our weather history database for the weather conditions in past years. The results will help you decide how hot, cold, wet, or windy it might be!

Date:

Astronomy

Nov. 15, 2017 Rise Set
Actual Time 7:41 AM +03 5:49 PM +03
Civil Twilight 7:13 AM +03 6:17 PM +03
Nautical Twilight 6:41 AM +03 6:49 PM +03
Astronomical Twilight 6:10 AM +03 7:20 PM +03
Moon 4:26 AM +03 (11/15) 4:30 PM +03 (11/15)
Length of Visible Light 11h 04m
Length of Day
10h 08m
Waning Crescent, 9% of the Moon is Illuminated
Nov 15
Waning Crescent
Nov 18
New
Nov 26
First Quarter
Dec 3
Full
Dec 10
Last Quarter

Hourly Weather History & Observations

Time (+03) Temp. Windchill Dew Point Humidity Pressure Visibility Wind Dir Wind Speed Gust Speed Precip Events Conditions
12:50 AM 46.4 °F 45.2 °F 46.4 °F 100% 30.12 in 6.2 mi NE 3.5 mph - N/A   Partly Cloudy
2:50 AM 44.6 °F 41.4 °F 44.6 °F 100% 30.15 in 6.2 mi East 5.8 mph - N/A   Partly Cloudy
4:03 AM 42.8 °F - 42.8 °F 100% 30.15 in 2.8 mi Calm Calm - N/A   Scattered Clouds
4:50 AM 42.8 °F - 42.8 °F 100% 30.15 in 1.2 mi NNE 1.2 mph - N/A Fog Patches of Fog
5:12 AM 42.8 °F - 42.8 °F 100% 30.15 in 2.5 mi Calm Calm - N/A   Mist
5:50 AM 41.0 °F 38.0 °F 39.2 °F 93% 30.15 in 3.7 mi East 4.6 mph - N/A   Unknown
6:50 AM 41.0 °F 36.4 °F 41.0 °F 100% 30.15 in 5.0 mi East 6.9 mph - N/A   Unknown
7:19 AM 42.8 °F 37.0 °F 42.8 °F 100% 30.15 in 2.8 mi East 10.4 mph - N/A Fog Patches of Fog
8:50 AM 44.6 °F - 44.6 °F 100% 30.18 in 3.1 mi ENE 1.2 mph - N/A   Mist
9:50 AM 51.8 °F - 46.4 °F 82% 30.18 in - East 9.2 mph - N/A   Clear
10:50 AM 51.8 °F - 48.2 °F 88% 30.18 in - East 11.5 mph - N/A   Clear
1:50 PM 59.0 °F - 48.2 °F 67% 30.18 in 6.2 mi East 5.8 mph - N/A   Partly Cloudy
2:50 PM 60.8 °F - 48.2 °F 63% 30.15 in 6.2 mi East 3.5 mph - N/A   Partly Cloudy
3:50 PM 62.6 °F - 46.4 °F 55% 30.15 in 6.2 mi Variable 2.3 mph - N/A   Partly Cloudy
4:50 PM 60.8 °F - 48.2 °F 63% 30.15 in 6.2 mi East 3.5 mph - N/A   Partly Cloudy
5:50 PM 57.2 °F - 46.4 °F 67% 30.15 in 6.2 mi East 3.5 mph - N/A   Partly Cloudy
6:50 PM 53.6 °F - 46.4 °F 77% 30.15 in 6.2 mi West 1.2 mph - N/A   Partly Cloudy
8:50 PM 48.2 °F - 44.6 °F 87% 30.18 in 6.2 mi West 2.3 mph - N/A   Partly Cloudy
9:50 PM 46.4 °F 45.2 °F 42.8 °F 87% 30.18 in 6.2 mi SSW 3.5 mph - N/A   Partly Cloudy